| time (UTC) | temp F | wind direction | speed MPH | gust MPH | rain 1hr in | rain 24hr in | rain mn in | humidity % | barometer mb |
| 20260504050105 | 55 | 33 | 18.0 | 29.0 | 0.00 | 0.00 | 0.00 | 37 | 1009.8 |
| 20260504044559 | 57 | 5 | 19.0 | 27.0 | 0.00 | 0.00 | 0.00 | 38 | 1009.5 |
| 20260504043055 | 57 | 27 | 10.0 | 16.0 | 0.00 | 0.00 | 0.00 | 38 | 1009.0 |
| 20260504041557 | 58 | 41 | 9.0 | 15.0 | 0.00 | 0.00 | 0.00 | 37 | 1008.6 |
| 20260504040056 | 58 | 5 | 9.0 | 14.0 | 0.00 | 0.00 | 0.00 | 36 | 1008.2 |
| 20260504034551 | 59 | 28 | 10.0 | 15.0 | 0.00 | 0.00 | 0.00 | 36 | 1008.1 |
| 20260504033052 | 60 | 37 | 9.0 | 20.0 | 0.00 | 0.00 | 0.00 | 35 | 1007.6 |
| 20260504031554 | 61 | 21 | 13.0 | 20.0 | 0.00 | 0.00 | 0.00 | 34 | 1007.4 |
| 20260504030058 | 62 | 29 | 12.0 | 18.0 | 0.00 | 0.00 | 0.00 | 32 | 1007.1 |
| 20260504024607 | 63 | 41 | 11.0 | 17.0 | 0.00 | 0.00 | 0.00 | 29 | 1006.9 |
| 20260504023055 | 65 | 20 | 11.0 | 15.0 | 0.00 | 0.00 | 0.00 | 26 | 1006.8 |
| 20260504021555 | 68 | 360 | 5.0 | 10.0 | 0.00 | 0.00 | 0.00 | 20 | 1006.6 |
| 20260504020051 | 69 | 348 | 6.0 | 14.0 | 0.00 | 0.00 | 0.00 | 20 | 1006.7 |
| 20260504014556 | 70 | 13 | 8.0 | 16.0 | 0.00 | 0.00 | 0.00 | 19 | 1006.8 |
| 20260504013056 | 71 | 355 | 10.0 | 17.0 | 0.00 | 0.00 | 0.00 | 19 | 1006.7 |
| 20260504011553 | 72 | 360 | 10.0 | 19.0 | 0.00 | 0.00 | 0.00 | 19 | 1006.8 |
| 20260504004559 | 73 | 11 | 10.0 | 18.0 | 0.00 | 0.00 | 0.00 | 19 | 1006.8 |
| 20260504003054 | 73 | 360 | 11.0 | 19.0 | 0.00 | 0.00 | 0.00 | 18 | 1007.1 |
| 20260504001552 | 74 | 333 | 10.0 | 19.0 | 0.00 | 0.00 | 0.00 | 18 | 1007.2 |
| 20260504000132 | 73 | 345 | 9.0 | 16.0 | 0.00 | 0.00 | 0.00 | 18 | 1007.2 |
| 20260503234559 | 73 | 323 | 11.0 | 21.0 | 0.00 | 0.00 | 0.00 | 18 | 1007.2 |
| 20260503233052 | 73 | 300 | 11.0 | 22.0 | 0.00 | 0.00 | 0.00 | 18 | 1007.4 |
| 20260503231555 | 73 | 324 | 8.0 | 19.0 | 0.00 | 0.00 | 0.00 | 18 | 1007.4 |
| 20260503230052 | 73 | 297 | 14.0 | 23.0 | 0.00 | 0.00 | 0.00 | 18 | 1007.5 |
| 20260503224555 | 73 | 348 | 14.0 | 23.0 | 0.00 | 0.00 | 0.00 | 18 | 1007.6 |
| 20260503223053 | 74 | 334 | 13.0 | 23.0 | 0.00 | 0.00 | 0.00 | 18 | 1007.8 |
| 20260503221556 | 73 | 294 | 9.0 | 21.0 | 0.00 | 0.00 | 0.00 | 18 | 1007.9 |
| 20260503220054 | 73 | 184 | 11.0 | 22.0 | 0.00 | 0.00 | 0.00 | 18 | 1008.2 |
| 20260503214555 | 72 | 251 | 10.0 | 21.0 | 0.00 | 0.00 | 0.00 | 19 | 1008.2 |
| 20260503213055 | 72 | 265 | 12.0 | 18.0 | 0.00 | 0.00 | 0.00 | 19 | 1008.3 |
| 20260503211615 | 72 | 286 | 15.0 | 23.0 | 0.00 | 0.00 | 0.00 | 19 | 1008.7 |
| 20260503210056 | 72 | 292 | 11.0 | 24.0 | 0.00 | 0.00 | 0.00 | 19 | 1008.9 |
| 20260503204551 | 71 | 296 | 9.0 | 20.0 | 0.00 | 0.00 | 0.00 | 19 | 1009.0 |
| 20260503203110 | 71 | 274 | 11.0 | 19.0 | 0.00 | 0.00 | 0.00 | 20 | 1009.2 |
| 20260503201556 | 71 | 298 | 9.0 | 19.0 | 0.00 | 0.00 | 0.00 | 20 | 1009.4 |
| 20260503200058 | 72 | 305 | 10.0 | 19.0 | 0.00 | 0.00 | 0.00 | 19 | 1009.5 |
| 20260503194558 | 71 | 321 | 8.0 | 15.0 | 0.00 | 0.00 | 0.00 | 20 | 1009.7 |
| 20260503193054 | 69 | 275 | 12.0 | 23.0 | 0.00 | 0.00 | 0.00 | 18 | 1010.0 |
| 20260503191555 | 70 | 302 | 12.0 | 26.0 | 0.00 | 0.00 | 0.00 | 18 | 1010.3 |
| 20260503190059 | 69 | 253 | 14.0 | 21.0 | 0.00 | 0.00 | 0.00 | 19 | 1010.4 |
| 20260503184557 | 70 | 270 | 9.0 | 17.0 | 0.00 | 0.00 | 0.00 | 20 | 1010.4 |
| 20260503183054 | 69 | 327 | 10.0 | 18.0 | 0.00 | 0.00 | 0.00 | 21 | 1010.7 |
| 20260503181603 | 69 | 298 | 4.0 | 15.0 | 0.00 | 0.00 | 0.00 | 22 | 1010.9 |
| 20260503180057 | 68 | 285 | 12.0 | 24.0 | 0.00 | 0.00 | 0.00 | 22 | 1011.1 |
| 20260503174555 | 68 | 279 | 10.0 | 20.0 | 0.00 | 0.00 | 0.00 | 24 | 1011.3 |
| 20260503173058 | 68 | 298 | 7.0 | 16.0 | 0.00 | 0.00 | 0.00 | 27 | 1011.4 |
| 20260503171559 | 67 | 298 | 8.0 | 13.0 | 0.00 | 0.00 | 0.00 | 28 | 1011.5 |
| 20260503081553 | 40 | 336 | 1.0 | 11.0 | 0.00 | 0.00 | 0.00 | 75 | 1014.5 |
| 20260503071603 | 40 | 344 | 2.0 | 9.0 | 0.00 | 0.00 | 0.00 | 71 | 1014.8 |